Location: Newark
(35.5300°N, 14.3000°E)
Time: 15:37:53
(UTC+00:00)

S-56A Canister/Altair - Pass Details

Date: 17 November 2019
Orbit: 633 x 2500 km, 38.9° (Epoch: 08 December)

Event Time Altitude Azimuth Distance (km) Brightness Sun altitude
Rises 18:33:20 0° 270° (W) 4,484 12.6 -32.1°
Reaches altitude 10° 18:36:53 10° 274° (W) 3,204 11.5 -32.8°
Enters shadow 18:43:02 53° 305° (NW) 1,164 8.5 -34.1°
